Location: Peebles
(55.6412°N, 3.1714°W)
Time: 15:24:03
(UTC+01:00)

Lacrosse 5 rocket - Pass Details

Date: 26 September 2021
Orbit: 464 x 629 km, 57.0° (Epoch: 17 October)

Event Time Altitude Azimuth Distance (km) Brightness Sun altitude
Rises 20:16:49 0° 290° (WNW) 2,920 7.1 -11.5°
Reaches altitude 10° 20:19:47 10° 271° (W) 1,998 5.6 -11.9°
Maximum altitude 20:22:45 17° 231° (SW) 1,557 4.1 -12.3°
Drops below altitude 10° 20:25:39 10° 190° (S) 1,951 4.1 -12.7°
Sets 20:28:31 0° 170° (S) 2,821 4.7 -13.1°
